Showing default

GAOFEN 9, 40894

Orbit data source: Space-Track

GAOFEN 9, 40894 is a payload satellite owned by GGKGJ (CN) in SSO that was launched on Mon, 14 Sep 2015 UTC via a CHANG ZHENG 2D launch vehicle from the Jiuquan Satellite Launch Center, China (JSC). Payload-class satellites include a variety of spacecraft equipped with specific instruments for various scientific and technological missions. These include communications satellites like Starlink; space stations such as the ISS; scientific satellites like the Hubble; Earth observation satellites from companies like Planet Labs, Umbra, and HawkEye 360; GPS; miniature CubeSats for education and research; and military/defense satellites.

Loading next visibility...
Identifier
40894, 2015-047A
Orbit
SSO
Last TLE update
3 hours ago
Origin
Manufacturer
DFH
Mission
Operational Defense Imaging
Bus & Motor
CAST-3000, AOCS
Mass
~1,700 kg wet, ~1,200 kg dry
Launch date (UTC)
2015-09-14 (10 years ago)
Launch vehicle
CHANG ZHENG 2D
Launch site
Jiuquan Satellite Launch Center, China (JSC)
Object type
Payload
Rocket body
Debris
Shape & HBR
Box + 2 Pan, 4 m
Radar Cross Section
4.991 m², Large (>1 m²)

Expand to show TLE details & history

TLE from 3 hours ago
0 GAOFEN 9
1 40894U 15047A   25182.20437365  .00000772  00000-0  10337-3 0  9993
2 40894  97.6759 228.0652 0027170 207.7788 152.1976 14.81902711528191
Epoch: 2025-07-01T04:54Z
TLE epoch observation values (Epoch: 2025-07-01T04:54:17.883Z)
Latitude
-0.00002°
Longitude
-125.01249°
Altitude
643.197 km
Speed
7.527 km/s
True Right ascension
15h 12m 15s
True Declination
0° 00' 00"
Sunlit
Object was in full shadow at epoch
Visualization orbit readout
Latitude
53.71222°
Longitude
-135.39249°
Altitude
649.102 km
Speed
7.529 km/s
Apparent Right ascension
10h 55m 13s
Apparent Declination
14° 37' 47"
Sunlit
Object is in daylight
Visualization observer readout
Local Sidereal Time
20:01:35
Azimuth
314.12° NW
Elevation
-22.153°
Doppler factor
1
Orbital elements
Apogee altitude
639.368 km
Perigee altitude
601.338 km
Semi-major axis
6,998.49 km
Eccentricity
0.00272
Inclination
97.6759°
RAAN
228.0652°
Arg. of periapsis
207.7788°
True anomaly
Unknown
Mean anomaly
152.1976°
Eccentric anomaly
Unknown
Mean motion
3.70712 °/min
Orbital period
97.11 mins
BSTAR
0.00010337
Loading maneuver chart data...
Loading SW <> Apogee altitude chart data...
Loading historical data...
Loading historical data...
Loading historical data...
Loading historical data...
Loading historical data...
Loading historical data...
Loading historical data...
Other satellites on launch #47 in the year 2015 (2015-09-14 UTC)

GAOFEN 9 Visibility forecast

Observer location: undefined°, undefined°

Span
Click to sort rows by Start time (UTC) header in descending order
Start Az.
Max El. time (UTC)
Max El. Az.
Max El.
End time (UTC)
End Az.
7 mins2025-07-01 15:12:28.651Z38.769° NE2025-07-01 15:15:28.651Z86.038° E24.492°2025-07-01 15:19:28.651Z154.683° SSE
4 mins2025-07-01 16:50:28.651Z321.272° NNW2025-07-01 16:51:28.651Z301.666° NW21.867°2025-07-01 16:54:28.651Z246.27° WSW
4 mins2025-07-02 02:08:28.651Z97.732° ESE2025-07-02 02:10:28.651Z61.399° ENE19.843°2025-07-02 02:12:28.651Z28.917° NE
6 mins2025-07-02 03:43:28.651Z208.076° SW2025-07-02 03:46:28.651Z273.157° WNW28.96°2025-07-02 03:49:28.651Z324.063° NNW
|